GW2473 Weather Reports


time (UTC)temp
F
wind
direction
speed
knots
gust
knots
rain 1hr
in
rain 24hr
in
rain mn
in
humidity
%
barometer
mb
20260506135513 59 205 1.7 5.2 0.05 0.05 0.05 85 1008.4
20260506135011 59 250 1.7 5.2 0.05 0.05 0.05 85 1008.3
20260506134532 59 194 0.9 3.5 0.04 0.04 0.04 85 1008.4
20260506134015 59 0 0.0 6.1 0.03 0.03 0.03 85 1008.4
20260506133518 59 292 0.9 7.0 0.03 0.03 0.03 84 1008.6
20260506133038 59 222 2.6 7.0 0.02 0.02 0.02 83 1008.5
20260506132515 60 207 0.9 7.0 0.01 0.01 0.01 83 1008.7
20260506132017 60 333 1.7 7.0 0.01 0.01 0.01 82 1008.7
20260506131530 60 258 2.6 9.6 0.00 0.00 0.00 82 1008.7
20260506131016 61 236 0.9 12.2 0.00 0.00 0.00 81 1008.7
20260506130516 61 0 1.7 15.6 0.00 0.00 0.00 80 1008.6
20260506130030 61 196 0.9 15.6 0.00 0.00 0.00 79 1008.5
20260506125513 61 253 3.5 14.8 0.00 0.00 0.00 79 1008.2
20260506125014 61 124 1.7 8.7 0.00 0.00 0.00 78 1008.2
20260506124530 61 0 1.7 8.7 0.00 0.00 0.00 78 1008.2
20260506124013 61 198 2.6 7.8 0.00 0.00 0.00 78 1008.1
20260506123512 61 232 2.6 7.0 0.00 0.00 0.00 78 1007.9
20260506123032 61 213 1.7 7.8 0.00 0.00 0.00 78 1007.9
20260506122516 61 5 3.5 7.8 0.00 0.00 0.00 78 1008.0
20260506122016 61 267 2.6 7.0 0.00 0.00 0.00 78 1008.0
20260506121530 61 0 1.7 6.1 0.00 0.00 0.00 77 1008.1
20260506121015 61 248 2.6 13.0 0.00 0.00 0.00 77 1008.1
20260506120514 61 221 2.6 13.0 0.00 0.00 0.00 76 1008.1
20260506120028 62 171 2.6 8.7 0.00 0.00 0.00 75 1008.1
20260506115514 62 215 1.7 8.7 0.00 0.00 0.00 73 1008.2
20260506115017 62 292 1.7 9.6 0.00 0.00 0.00 73 1008.4
20260506114536 62 190 2.6 9.6 0.00 0.00 0.00 71 1008.3
20260506114014 62 245 2.6 12.2 0.00 0.00 0.00 71 1008.3
20260506113520 62 226 4.3 13.0 0.00 0.00 0.00 71 1008.1
20260506113030 62 188 3.5 13.0 0.00 0.00 0.00 70 1008.1
20260506112515 62 0 0.0 9.6 0.00 0.00 0.00 70 1008.1
20260506112016 62 211 3.5 9.6 0.00 0.00 0.00 70 1008.1
20260506111535 62 163 0.9 6.1 0.00 0.00 0.00 69 1008.1
20260506111016 62 0 0.9 13.9 0.00 0.00 0.00 69 1008.2
20260506110515 62 0 1.7 13.9 0.00 0.00 0.00 69 1007.9
20260506110041 62 215 3.5 13.0 0.00 0.00 0.00 68 1008.1
20260506105517 62 223 0.9 8.7 0.00 0.00 0.00 68 1007.7
20260506105015 62 257 1.7 8.7 0.00 0.00 0.00 67 1007.5
20260506104554 63 217 1.7 7.0 0.00 0.00 0.00 67 1007.5
20260506104015 63 204 1.7 6.1 0.00 0.00 0.00 66 1007.5
20260506103517 63 265 1.7 6.1 0.00 0.00 0.00 66 1007.6
20260506103039 63 246 1.7 6.1 0.00 0.00 0.00 66 1007.6
20260506102515 63 213 1.7 8.7 0.00 0.00 0.00 65 1007.5
20260506102016 63 281 1.7 8.7 0.00 0.00 0.00 65 1007.4
20260506101533 63 0 1.7 8.7 0.00 0.00 0.00 64 1007.5
20260506101014 63 209 3.5 8.7 0.00 0.00 0.00 64 1007.6
20260506100519 63 190 1.7 6.1 0.00 0.00 0.00 64 1007.7
20260506100042 63 0 1.7 6.1 0.00 0.00 0.00 63 1007.7
20260506095517 63 194 0.9 6.1 0.00 0.00 0.00 63 1007.7
20260506095016 63 213 1.7 6.1 0.00 0.00 0.00 62 1007.8
20260506094538 63 0 1.7 7.0 0.00 0.00 0.00 62 1007.7
20260506094019 63 225 0.9 7.0 0.00 0.00 0.00 62 1007.7
20260506093514 63 176 3.5 7.0 0.00 0.00 0.00 61 1007.5
20260506093035 64 231 2.6 7.8 0.00 0.00 0.00 61 1007.5
20260506092514 64 213 3.5 7.8 0.00 0.00 0.00 60 1007.8
20260506092017 64 231 0.9 4.3 0.00 0.00 0.00 60 1007.7
20260506091531 64 209 0.9 7.0 0.00 0.00 0.00 60 1007.7
20260506091016 64 188 1.7 7.0 0.00 0.00 0.00 60 1007.7
20260506090520 64 215 2.6 7.8 0.00 0.00 0.00 59 1007.7
20260506090042 64 198 0.9 7.8 0.00 0.00 0.00 59 1007.9
20260506085517 64 296 2.6 7.8 0.00 0.00 0.00 59 1008.1
20260506085017 64 203 3.5 11.3 0.00 0.00 0.00 59 1008.0
20260506084533 64 0 3.5 11.3 0.00 0.00 0.00 59 1007.9
20260506084022 64 0 1.7 7.0 0.00 0.00 0.00 58 1007.9
20260506083518 64 201 1.7 7.0 0.00 0.00 0.00 58 1007.8
20260506083040 64 237 0.9 7.0 0.00 0.00 0.00 58 1007.8
20260506082516 64 232 1.7 5.2 0.00 0.00 0.00 57 1007.8
20260506082018 65 172 1.7 7.0 0.00 0.00 0.00 57 1007.8
20260506081531 65 203 2.6 7.0 0.00 0.00 0.00 57 1007.8
20260506081020 65 190 0.9 6.1 0.00 0.00 0.00 56 1007.8
20260506080517 65 181 2.6 7.8 0.00 0.00 0.00 56 1007.9
20260506073520 65 166 2.6 8.7 0.00 0.00 0.00 54 1008.1
20260506073035 65 192 3.5 8.7 0.00 0.00 0.00 54 1008.0
20260506072517 65 187 2.6 7.8 0.00 0.00 0.00 54 1008.2
20260506072015 66 155 0.9 12.2 0.00 0.00 0.00 54 1008.1
20260506071534 66 204 1.7 12.2 0.00 0.00 0.00 53 1008.1
20260506071017 66 198 0.9 7.8 0.00 0.00 0.00 53 1008.0
20260506070516 65 205 2.6 8.7 0.00 0.00 0.00 53 1008.1
20260506062015 65 202 1.7 7.8 0.00 0.00 0.00 53 1008.7
20260506061531 65 161 2.6 7.0 0.00 0.00 0.00 53 1008.8
20260506061016 65 213 1.7 5.2 0.00 0.00 0.00 53 1008.8
20260506060517 66 202 1.7 8.7 0.00 0.00 0.00 53 1008.9
20260506051016 67 235 2.6 7.0 0.00 0.00 0.00 49 1008.9
20260506050514 67 186 2.6 10.4 0.00 0.00 0.00 49 1009.0
20260506045014 67 278 1.7 7.0 0.00 0.00 0.00 48 1009.1
20260506044535 67 129 0.9 7.0 0.00 0.00 0.00 48 1009.1
20260506044013 67 150 1.7 7.0 0.00 0.00 0.00 47 1009.1
20260506043518 67 235 1.7 7.8 0.00 0.00 0.00 47 1009.2
20260506043034 67 257 1.7 7.8 0.00 0.00 0.00 47 1009.1
20260506042518 67 0 0.0 7.8 0.00 0.00 0.00 47 1009.1
20260506042015 67 0 0.9 7.8 0.00 0.00 0.00 48 1009.1
20260506041532 67 215 2.6 7.8 0.00 0.00 0.00 47 1009.1
20260506041015 67 202 0.9 4.3 0.00 0.00 0.00 47 1009.2
20260506040516 67 11 0.0 7.0 0.00 0.00 0.00 48 1009.2
20260506040045 68 0 0.9 7.0 0.00 0.00 0.00 47 1009.2
20260506035516 68 195 2.6 7.8 0.00 0.00 0.00 47 1009.3
20260506035016 68 0 0.0 7.8 0.00 0.00 0.00 47 1009.2
20260506034533 68 330 1.7 9.6 0.00 0.00 0.00 47 1009.2
20260506034014 68 0 0.0 9.6 0.00 0.00 0.00 47 1009.2
20260506033514 68 203 0.0 7.8 0.00 0.00 0.00 46 1009.2
20260506033032 68 225 2.6 7.8 0.00 0.00 0.00 46 1009.2
20260506032514 68 194 0.9 6.1 0.00 0.00 0.00 46 1009.1
20260506032017 68 324 1.7 6.1 0.00 0.00 0.00 46 1009.0
20260506031533 69 214 1.7 8.7 0.00 0.00 0.00 46 1009.1
20260506031017 69 183 0.9 8.7 0.00 0.00 0.00 45 1009.1
20260506030515 69 5 2.6 7.0 0.00 0.00 0.00 45 1009.2
20260506030031 69 207 1.7 7.8 0.00 0.00 0.00 45 1009.1
20260506025515 69 207 0.0 7.8 0.00 0.00 0.00 45 1009.2
20260506025016 69 196 3.5 7.8 0.00 0.00 0.00 45 1009.2
20260506024541 69 0 2.6 9.6 0.00 0.00 0.00 45 1009.2
20260506024017 69 271 2.6 9.6 0.00 0.00 0.00 45 1009.2
20260506023529 70 227 1.7 7.0 0.00 0.00 0.00 45 1009.3
20260506023032 70 238 1.7 7.0 0.00 0.00 0.00 44 1009.3
20260506022515 70 227 0.9 6.1 0.00 0.00 0.00 44 1009.3
20260506022015 70 250 2.6 6.1 0.00 0.00 0.00 43 1009.3
20260506021546 70 213 0.9 12.2 0.00 0.00 0.00 44 1009.3
20260506021016 71 136 3.5 12.2 0.00 0.00 0.00 44 1009.3
20260506020521 71 202 3.5 10.4 0.00 0.00 0.00 43 1009.4
20260506020030 71 0 0.0 4.3 0.00 0.00 0.00 43 1009.3
20260506015517 71 0 0.9 8.7 0.00 0.00 0.00 43 1009.3
20260506015017 71 185 1.7 8.7 0.00 0.00 0.00 42 1009.2
20260506014530 71 0 1.7 8.7 0.00 0.00 0.00 42 1009.2
20260506014014 71 249 2.6 11.3 0.00 0.00 0.00 41 1009.1
20260506013516 71 0 2.6 11.3 0.00 0.00 0.00 41 1009.0
20260506013032 71 330 0.0 6.1 0.00 0.00 0.00 42 1009.0
20260506012516 72 175 1.7 9.6 0.00 0.00 0.00 41 1008.9
20260506012017 72 0 0.9 9.6 0.00 0.00 0.00 42 1008.9
20260506011540 72 167 1.7 7.8 0.00 0.00 0.00 41 1008.8
20260506011015 72 352 0.9 9.6 0.00 0.00 0.00 42 1008.7
20260506010518 72 307 0.9 9.6 0.00 0.00 0.00 41 1008.7
20260506010045 72 317 0.0 6.1 0.00 0.00 0.00 41 1008.5
20260506005516 72 228 1.7 8.7 0.00 0.00 0.00 41 1008.5
20260506005017 73 176 2.6 12.2 0.00 0.00 0.00 41 1008.4
20260506004532 73 219 0.9 12.2 0.00 0.00 0.00 41 1008.5
20260506004014 73 188 1.7 7.8 0.00 0.00 0.00 41 1008.5
20260506003515 73 209 1.7 7.8 0.00 0.00 0.00 40 1008.4
20260506003033 73 0 2.6 7.8 0.00 0.00 0.00 40 1008.3
20260506002517 73 0 0.9 9.6 0.00 0.00 0.00 41 1008.3
20260506002016 73 248 3.5 10.4 0.00 0.00 0.00 41 1008.2
20260506001530 73 223 4.3 10.4 0.00 0.00 0.00 41 1008.1
20260506001015 73 215 1.7 7.8 0.00 0.00 0.00 40 1008.1
20260506000517 73 0 1.7 7.8 0.00 0.00 0.00 40 1008.2
20260506000034 73 194 2.6 7.8 0.00 0.00 0.00 40 1008.1
20260505235516 73 0 0.9 6.1 0.00 0.00 0.00 40 1008.1
20260505235016 73 196 2.6 6.1 0.00 0.00 0.00 40 1008.0
20260505234552 73 227 0.9 5.2 0.00 0.00 0.00 39 1008.0
20260505234016 73 186 0.9 8.7 0.00 0.00 0.00 39 1008.0
20260505233519 74 207 2.6 9.6 0.00 0.00 0.00 39 1008.0
20260505233034 74 260 2.6 9.6 0.00 0.00 0.00 38 1008.0
20260505232514 74 0 0.0 5.2 0.00 0.00 0.00 39 1007.9
20260505232016 74 211 1.7 8.7 0.00 0.00 0.00 38 1007.9
20260505231533 74 258 1.7 8.7 0.00 0.00 0.00 38 1007.9
20260505231016 74 255 2.6 8.7 0.00 0.00 0.00 38 1007.9
20260505230516 74 241 1.7 7.0 0.00 0.00 0.00 38 1007.8
20260505230030 74 276 0.9 6.1 0.00 0.00 0.00 37 1007.8
20260505225516 74 38 1.7 7.0 0.00 0.00 0.00 36 1007.7
20260505225014 74 0 0.9 7.0 0.00 0.00 0.00 36 1007.6
20260505224533 74 257 1.7 7.0 0.00 0.00 0.00 36 1007.6
20260505224021 74 98 0.9 5.2 0.00 0.00 0.00 36 1007.4
20260505223516 74 339 0.9 7.8 0.00 0.00 0.00 36 1007.6
20260505223029 74 212 1.7 13.9 0.00 0.00 0.00 36 1007.6
20260505222516 74 88 3.5 13.9 0.00 0.00 0.00 36 1007.5
20260505222015 74 319 6.1 13.9 0.00 0.00 0.00 36 1007.5
20260505221530 74 242 3.5 16.5 0.00 0.00 0.00 36 1007.6
20260505221016 73 277 5.2 16.5 0.00 0.00 0.00 38 1007.6
20260505220514 72 281 4.3 11.3 0.00 0.00 0.00 42 1007.6
20260505220031 71 170 4.3 10.4 0.00 0.00 0.00 44 1007.4
20260505215514 71 326 2.6 8.7 0.00 0.00 0.00 46 1007.4
20260505215014 70 184 0.9 4.3 0.00 0.00 0.00 52 1007.4
20260505214542 70 266 0.0 2.6 0.00 0.00 0.00 52 1007.4
20260505214015 70 0 0.0 3.5 0.00 0.00 0.00 54 1007.4
20260505213515 70 0 0.9 9.6 0.00 0.00 0.00 54 1007.3
20260505213030 71 298 2.6 16.5 0.00 0.00 0.00 47 1007.5
20260505212518 73 337 6.1 16.5 0.00 0.00 0.00 42 1007.6
20260505212015 75 327 7.0 16.5 0.00 0.00 0.00 37 1008.1
20260505211540 76 339 6.1 16.5 0.00 0.00 0.00 33 1007.7
20260505211014 76 323 1.7 12.2 0.00 0.00 0.00 33 1007.3
20260505210516 76 318 4.3 12.2 0.00 0.00 0.00 33 1007.1
20260505210031 76 56 2.6 11.3 0.00 0.00 0.00 32 1006.9
20260505205517 76 340 2.6 13.9 0.00 0.00 0.00 33 1007.1
20260505205017 76 315 3.5 13.9 0.00 0.00 0.00 33 1006.9
20260505204533 77 297 4.3 13.9 0.00 0.00 0.00 32 1007.0
20260505204016 77 207 3.5 17.4 0.00 0.00 0.00 32 1006.9
20260505203516 77 265 5.2 20.9 0.00 0.00 0.00 32 1006.9
20260505203046 78 207 5.2 20.9 0.00 0.00 0.00 32 1006.9
20260505202514 79 277 7.8 17.4 0.00 0.00 0.00 31 1006.7
20260505202014 80 296 5.2 17.4 0.00 0.00 0.00 30 1006.7
20260505201531 79 277 7.0 20.9 0.00 0.00 0.00 30 1006.7
20260505201018 79 267 7.8 20.9 0.00 0.00 0.00 30 1006.6
20260505200515 79 298 4.3 20.9 0.00 0.00 0.00 31 1006.7
20260505200031 78 214 10.4 20.9 0.00 0.00 0.00 31 1006.8
20260505195515 79 333 7.8 20.9 0.00 0.00 0.00 30 1006.8
20260505195015 79 165 9.6 20.9 0.00 0.00 0.00 30 1006.7
20260505194529 79 300 2.6 21.7 0.00 0.00 0.00 31 1006.7
20260505194016 78 167 7.0 21.7 0.00 0.00 0.00 30 1006.9
20260505193515 78 334 4.3 17.4 0.00 0.00 0.00 31 1007.2
20260505193030 78 317 7.0 17.4 0.00 0.00 0.00 31 1007.1
20260505192516 78 309 7.0 17.4 0.00 0.00 0.00 31 1007.3
20260505192015 79 315 8.7 17.4 0.00 0.00 0.00 30 1007.3
20260505191530 78 242 3.5 17.4 0.00 0.00 0.00 31 1007.3
20260505191017 77 242 6.1 16.5 0.00 0.00 0.00 31 1007.4
20260505190515 78 241 4.3 20.0 0.00 0.00 0.00 31 1007.5
20260505190034 78 321 8.7 22.6 0.00 0.00 0.00 32 1007.7
20260505185515 78 276 6.1 22.6 0.00 0.00 0.00 31 1007.6
20260505185014 78 325 7.0 16.5 0.00 0.00 0.00 31 1007.7
20260505184543 78 318 7.8 15.6 0.00 0.00 0.00 31 1007.9
20260505184016 77 316 4.3 17.4 0.00 0.00 0.00 31 1007.6
20260505183513 78 304 8.7 21.7 0.00 0.00 0.00 31 1008.2
20260505183039 78 327 4.3 21.7 0.00 0.00 0.00 32 1008.0
20260505182516 77 179 9.6 21.7 0.00 0.00 0.00 31 1008.1
20260505182014 77 294 6.1 21.7 0.00 0.00 0.00 31 1008.0
20260505181531 77 285 6.1 21.7 0.00 0.00 0.00 32 1008.0
20260505181014 78 317 8.7 18.2 0.00 0.00 0.00 31 1008.3
20260505180518 77 285 6.1 21.7 0.00 0.00 0.00 32 1008.0
20260505180032 77 306 7.8 21.7 0.00 0.00 0.00 31 1008.3
20260505175514 78 325 5.2 17.4 0.00 0.00 0.00 30 1008.1
20260505175014 77 342 7.0 17.4 0.00 0.00 0.00 31 1008.1
20260505174530 77 298 7.0 20.9 0.00 0.00 0.00 33 1008.2
20260505174015 77 267 7.8 20.9 0.00 0.00 0.00 33 1008.1
20260505173514 77 340 7.0 19.1 0.00 0.00 0.00 34 1008.2
20260505173031 76 319 7.0 14.8 0.00 0.00 0.00 34 1008.2
20260505172514 76 348 5.2 18.2 0.00 0.00 0.00 35 1008.3
20260505172014 76 323 9.6 18.2 0.00 0.00 0.00 35 1008.1
20260505171530 76 13 6.1 13.9 0.00 0.00 0.00 35 1008.1
20260505171015 75 346 6.1 13.0 0.00 0.00 0.00 36 1008.1
20260505170515 76 101 6.1 16.5 0.00 0.00 0.00 37 1008.2
20260505170036 75 318 5.2 20.0 0.00 0.00 0.00 36 1008.4
20260505165515 76 63 7.8 20.9 0.00 0.00 0.00 36 1008.6
20260505165015 77 304 6.1 20.9 0.00 0.00 0.00 35 1008.5
20260505164536 77 100 3.5 12.2 0.00 0.00 0.00 35 1008.3
20260505164016 76 211 4.3 14.8 0.00 0.00 0.00 38 1008.4
20260505163518 75 270 7.0 17.4 0.00 0.00 0.00 39 1008.4
20260505163033 74 15 7.8 17.4 0.00 0.00 0.00 39 1008.7
20260505162520 74 31 7.8 17.4 0.00 0.00 0.00 40 1008.8
20260505162019 74 294 9.6 17.4 0.00 0.00 0.00 40 1008.7
20260505161539 74 237 5.2 13.9 0.00 0.00 0.00 41 1008.9
20260505161022 74 323 7.0 15.6 0.00 0.00 0.00 41 1008.9
20260505160519 74 326 5.2 15.6 0.00 0.00 0.00 41 1009.0
20260505153040 73 225 1.7 13.0 0.00 0.00 0.00 43 1009.4
20260505152514 73 298 4.3 13.9 0.00 0.00 0.00 44 1009.4
20260505152015 72 291 7.0 13.9 0.00 0.00 0.00 45 1009.3
20260505151545 73 293 5.2 13.0 0.00 0.00 0.00 44 1009.4
20260505151015 72 288 6.1 13.0 0.00 0.00 0.00 45 1009.3
20260505150516 72 317 4.3 13.0 0.00 0.00 0.00 44 1009.5
20260505140518 70 329 2.6 9.6 0.00 0.00 0.00 46 1009.5